| time (UTC) | temp F | wind direction | speed knots | gust knots | rain 1hr in | rain 24hr in | rain mn in | humidity % | barometer mb |
| 20260504031016 | 41 | 236 | 0.0 | 0.0 | 0.00 | 0.00 | 0.00 | 84 | 1013.5 |
| 20260504030514 | 41 | 235 | 0.0 | 0.0 | 0.00 | 0.00 | 0.00 | 81 | 1013.5 |
| 20260504030010 | 42 | 235 | 0.0 | 0.0 | 0.00 | 0.00 | 0.00 | 80 | 1013.5 |
| 20260504025507 | 42 | 235 | 0.0 | 0.0 | 0.00 | 0.00 | 0.00 | 80 | 1013.6 |
| 20260504025004 | 42 | 235 | 0.0 | 0.0 | 0.00 | 0.00 | 0.00 | 79 | 1013.6 |
| 20260504024501 | 42 | 235 | 0.0 | 0.0 | 0.00 | 0.00 | 0.00 | 79 | 1013.6 |
| 20260504023958 | 42 | 235 | 0.0 | 0.0 | 0.00 | 0.00 | 0.00 | 79 | 1013.6 |
| 20260504023455 | 43 | 235 | 0.0 | 0.0 | 0.00 | 0.00 | 0.00 | 79 | 1013.6 |
| 20260504022950 | 43 | 235 | 0.0 | 0.0 | 0.00 | 0.00 | 0.00 | 78 | 1013.7 |
| 20260504022446 | 43 | 235 | 0.0 | 0.0 | 0.00 | 0.00 | 0.00 | 79 | 1013.6 |
| 20260504021943 | 43 | 235 | 0.0 | 0.0 | 0.00 | 0.00 | 0.00 | 78 | 1013.7 |
| 20260504021440 | 42 | 235 | 0.0 | 0.0 | 0.00 | 0.00 | 0.00 | 80 | 1013.7 |
| 20260504020938 | 43 | 235 | 0.0 | 0.0 | 0.00 | 0.00 | 0.00 | 81 | 1013.5 |
| 20260504020434 | 42 | 235 | 0.0 | 0.0 | 0.00 | 0.00 | 0.00 | 83 | 1013.6 |
| 20260504015931 | 43 | 235 | 0.0 | 0.0 | 0.00 | 0.00 | 0.00 | 79 | 1013.6 |
| 20260504015427 | 43 | 235 | 0.0 | 0.0 | 0.00 | 0.00 | 0.00 | 78 | 1013.7 |
| 20260504014923 | 43 | 235 | 0.0 | 0.0 | 0.00 | 0.00 | 0.00 | 78 | 1013.5 |
| 20260504014419 | 44 | 235 | 0.0 | 0.0 | 0.00 | 0.00 | 0.00 | 78 | 1013.6 |
| 20260504013916 | 44 | 235 | 0.0 | 0.0 | 0.00 | 0.00 | 0.00 | 77 | 1013.7 |
| 20260504013415 | 44 | 235 | 0.0 | 0.0 | 0.00 | 0.00 | 0.00 | 76 | 1013.6 |
| 20260504012910 | 45 | 235 | 0.0 | 0.0 | 0.00 | 0.00 | 0.00 | 76 | 1013.6 |
| 20260504012409 | 45 | 235 | 0.0 | 0.0 | 0.00 | 0.00 | 0.00 | 75 | 1013.4 |
| 20260504011905 | 45 | 235 | 0.0 | 0.0 | 0.00 | 0.00 | 0.00 | 74 | 1013.4 |
| 20260504011403 | 46 | 235 | 0.0 | 0.0 | 0.00 | 0.00 | 0.00 | 72 | 1013.4 |
| 20260504010858 | 46 | 235 | 0.0 | 0.0 | 0.00 | 0.00 | 0.00 | 69 | 1013.4 |
| 20260504010354 | 47 | 235 | 0.0 | 0.0 | 0.00 | 0.00 | 0.00 | 68 | 1013.4 |
| 20260504005851 | 47 | 235 | 0.0 | 0.0 | 0.00 | 0.00 | 0.00 | 65 | 1013.4 |
| 20260504005347 | 48 | 235 | 0.0 | 0.0 | 0.00 | 0.00 | 0.00 | 65 | 1013.5 |
| 20260504004845 | 49 | 235 | 0.0 | 0.0 | 0.00 | 0.00 | 0.00 | 59 | 1013.4 |
| 20260504004343 | 49 | 235 | 0.0 | 0.0 | 0.00 | 0.00 | 0.00 | 57 | 1013.3 |
| 20260504003839 | 49 | 235 | 0.0 | 0.0 | 0.00 | 0.00 | 0.00 | 58 | 1013.3 |
| 20260504003336 | 50 | 235 | 0.0 | 0.0 | 0.00 | 0.00 | 0.00 | 55 | 1013.2 |
| 20260504002832 | 51 | 235 | 0.0 | 0.0 | 0.00 | 0.00 | 0.00 | 54 | 1013.5 |
| 20260504002329 | 51 | 235 | 0.0 | 0.0 | 0.00 | 0.00 | 0.00 | 55 | 1013.2 |
| 20260504001827 | 51 | 235 | 0.0 | 0.0 | 0.00 | 0.00 | 0.00 | 52 | 1013.4 |
| 20260504001324 | 51 | 235 | 0.0 | 0.0 | 0.00 | 0.00 | 0.00 | 55 | 1013.2 |
| 20260504000821 | 52 | 235 | 0.0 | 0.0 | 0.00 | 0.00 | 0.00 | 54 | 1013.1 |
| 20260504000318 | 52 | 235 | 0.0 | 0.0 | 0.00 | 0.00 | 0.00 | 52 | 1013.2 |
| 20260503235816 | 53 | 235 | 0.0 | 0.0 | 0.00 | 0.00 | 0.00 | 53 | 1013.1 |
| 20260503235313 | 53 | 233 | 0.0 | 1.7 | 0.00 | 0.00 | 0.00 | 48 | 1013.2 |
| 20260503234810 | 53 | 238 | 0.0 | 0.0 | 0.00 | 0.00 | 0.00 | 51 | 1013.1 |
| 20260503234308 | 54 | 244 | 0.0 | 0.0 | 0.00 | 0.00 | 0.00 | 49 | 1013.3 |
| 20260503233806 | 54 | 244 | 0.0 | 0.0 | 0.00 | 0.00 | 0.00 | 49 | 1013.2 |
| 20260503233301 | 54 | 244 | 0.0 | 0.0 | 0.00 | 0.00 | 0.00 | 48 | 1013.2 |
| 20260503232758 | 54 | 244 | 0.0 | 0.0 | 0.00 | 0.00 | 0.00 | 49 | 1013.2 |
| 20260503232256 | 55 | 244 | 0.9 | 1.7 | 0.00 | 0.00 | 0.00 | 45 | 1013.2 |
| 20260503231754 | 55 | 241 | 0.0 | 0.0 | 0.00 | 0.00 | 0.00 | 48 | 1013.4 |
| 20260503231250 | 55 | 232 | 0.0 | 0.0 | 0.00 | 0.00 | 0.00 | 45 | 1013.1 |
| 20260503230746 | 56 | 237 | 0.0 | 0.0 | 0.00 | 0.00 | 0.00 | 46 | 1013.1 |
| 20260503230243 | 56 | 242 | 0.0 | 0.0 | 0.00 | 0.00 | 0.00 | 47 | 1013.2 |
| 20260503225736 | 56 | 233 | 0.0 | 0.0 | 0.00 | 0.00 | 0.00 | 43 | 1013.2 |
| 20260503225236 | 56 | 232 | 0.0 | 0.0 | 0.00 | 0.00 | 0.00 | 44 | 1013.3 |
| 20260503224733 | 56 | 232 | 0.0 | 0.9 | 0.00 | 0.00 | 0.00 | 44 | 1013.2 |
| 20260503224230 | 57 | 222 | 0.0 | 0.0 | 0.00 | 0.00 | 0.00 | 41 | 1013.0 |
| 20260503223728 | 57 | 246 | 0.0 | 0.9 | 0.00 | 0.00 | 0.00 | 42 | 1013.2 |
| 20260503223225 | 57 | 220 | 2.6 | 3.5 | 0.00 | 0.00 | 0.00 | 44 | 1013.3 |
| 20260503222721 | 57 | 250 | 0.0 | 0.0 | 0.00 | 0.00 | 0.00 | 42 | 1013.2 |
| 20260503222219 | 57 | 226 | 0.0 | 0.9 | 0.00 | 0.00 | 0.00 | 41 | 1013.3 |
| 20260503221718 | 58 | 219 | 1.7 | 2.6 | 0.00 | 0.00 | 0.00 | 43 | 1013.4 |
| 20260503221215 | 58 | 233 | 1.7 | 2.6 | 0.00 | 0.00 | 0.00 | 41 | 1013.6 |
| 20260503220711 | 60 | 249 | 0.9 | 2.6 | 0.00 | 0.00 | 0.00 | 38 | 1013.5 |
| 20260503220207 | 60 | 220 | 1.7 | 6.1 | 0.00 | 0.00 | 0.00 | 38 | 1013.2 |
| 20260503215704 | 60 | 220 | 1.7 | 6.1 | 0.00 | 0.00 | 0.00 | 38 | 1013.0 |
| 20260503215201 | 59 | 221 | 1.7 | 2.6 | 0.00 | 0.00 | 0.00 | 38 | 1013.2 |
| 20260503214700 | 58 | 230 | 0.0 | 2.6 | 0.00 | 0.00 | 0.00 | 40 | 1013.2 |
| 20260503214155 | 58 | 223 | 0.0 | 2.6 | 0.00 | 0.00 | 0.00 | 41 | 1013.3 |
| 20260503213649 | 58 | 217 | 0.9 | 1.7 | 0.00 | 0.00 | 0.00 | 38 | 1013.2 |
| 20260503213145 | 57 | 235 | 0.0 | 2.6 | 0.00 | 0.00 | 0.00 | 38 | 1013.3 |
| 20260503212643 | 58 | 218 | 3.5 | 5.2 | 0.00 | 0.00 | 0.00 | 40 | 1013.3 |
| 20260503212140 | 58 | 261 | 3.5 | 3.5 | 0.00 | 0.00 | 0.00 | 39 | 1013.2 |
| 20260503211638 | 60 | 216 | 0.9 | 2.6 | 0.00 | 0.00 | 0.00 | 39 | 1013.3 |
| 20260503211133 | 59 | 185 | 4.3 | 6.1 | 0.00 | 0.00 | 0.00 | 37 | 1013.2 |
| 20260503210629 | 58 | 226 | 0.9 | 2.6 | 0.00 | 0.00 | 0.00 | 42 | 1013.0 |
| 20260503210127 | 59 | 223 | 0.0 | 1.7 | 0.00 | 0.00 | 0.00 | 39 | 1013.2 |
| 20260503205622 | 59 | 221 | 0.9 | 2.6 | 0.00 | 0.00 | 0.00 | 39 | 1013.3 |
| 20260503205118 | 59 | 219 | 1.7 | 2.6 | 0.00 | 0.00 | 0.00 | 39 | 1013.3 |
| 20260503204615 | 58 | 220 | 1.7 | 2.6 | 0.00 | 0.00 | 0.00 | 39 | 1013.6 |
| 20260503204113 | 57 | 283 | 1.7 | 3.5 | 0.00 | 0.00 | 0.00 | 40 | 1013.4 |
| 20260503203610 | 57 | 238 | 0.0 | 0.0 | 0.00 | 0.00 | 0.00 | 38 | 1013.5 |
| 20260503203108 | 58 | 223 | 0.9 | 6.1 | 0.00 | 0.00 | 0.00 | 41 | 1013.4 |
| 20260503202605 | 58 | 217 | 1.7 | 5.2 | 0.00 | 0.00 | 0.00 | 39 | 1013.8 |
| 20260503202103 | 58 | 224 | 0.9 | 6.1 | 0.00 | 0.00 | 0.00 | 41 | 1013.6 |
| 20260503201601 | 60 | 223 | 1.7 | 6.1 | 0.00 | 0.00 | 0.00 | 40 | 1013.8 |
| 20260503201058 | 57 | 221 | 0.0 | 1.7 | 0.00 | 0.00 | 0.00 | 42 | 1013.7 |
| 20260503200554 | 57 | 227 | 1.7 | 3.5 | 0.00 | 0.00 | 0.00 | 41 | 1014.0 |
| 20260503200050 | 57 | 238 | 1.7 | 3.5 | 0.00 | 0.00 | 0.00 | 39 | 1013.9 |
| 20260503195547 | 59 | 219 | 2.6 | 5.2 | 0.00 | 0.00 | 0.00 | 40 | 1013.8 |
| 20260503195044 | 57 | 220 | 0.9 | 1.7 | 0.00 | 0.00 | 0.00 | 41 | 1014.3 |
| 20260503194541 | 58 | 249 | 0.9 | 1.7 | 0.00 | 0.00 | 0.00 | 41 | 1014.0 |
| 20260503194040 | 58 | 235 | 0.0 | 5.2 | 0.00 | 0.00 | 0.00 | 40 | 1014.2 |
| 20260503193538 | 58 | 237 | 0.0 | 1.7 | 0.00 | 0.00 | 0.00 | 42 | 1014.3 |
| 20260503193033 | 59 | 206 | 3.5 | 6.1 | 0.00 | 0.00 | 0.00 | 40 | 1014.3 |
| 20260503192530 | 59 | 202 | 3.5 | 3.5 | 0.00 | 0.00 | 0.00 | 38 | 1014.6 |
| 20260503192026 | 60 | 221 | 2.6 | 6.1 | 0.00 | 0.00 | 0.00 | 40 | 1014.6 |
| 20260503191523 | 58 | 211 | 2.6 | 5.2 | 0.00 | 0.00 | 0.00 | 41 | 1014.4 |
| 20260503191020 | 58 | 146 | 5.2 | 7.0 | 0.00 | 0.00 | 0.00 | 43 | 1014.6 |
| 20260503190516 | 59 | 239 | 0.0 | 3.5 | 0.00 | 0.00 | 0.00 | 40 | 1014.5 |
| 20260503190014 | 58 | 241 | 2.6 | 7.8 | 0.00 | 0.00 | 0.00 | 42 | 1014.7 |
| 20260503185510 | 58 | 227 | 1.7 | 6.1 | 0.00 | 0.00 | 0.00 | 41 | 1014.7 |
| 20260503185009 | 57 | 230 | 0.9 | 5.2 | 0.00 | 0.00 | 0.00 | 42 | 1014.9 |
| 20260503184506 | 57 | 252 | 1.7 | 5.2 | 0.00 | 0.00 | 0.00 | 39 | 1014.7 |
| 20260503184002 | 57 | 191 | 2.6 | 5.2 | 0.00 | 0.00 | 0.00 | 43 | 1015.0 |
| 20260503183459 | 58 | 211 | 2.6 | 6.1 | 0.00 | 0.00 | 0.00 | 40 | 1015.1 |
| 20260503182956 | 57 | 233 | 1.7 | 5.2 | 0.00 | 0.00 | 0.00 | 41 | 1015.0 |
| 20260503182455 | 58 | 233 | 0.9 | 5.2 | 0.00 | 0.00 | 0.00 | 44 | 1015.2 |
| 20260503181952 | 56 | 163 | 7.8 | 12.2 | 0.00 | 0.00 | 0.00 | 43 | 1015.1 |
| 20260503181449 | 57 | 172 | 6.1 | 7.8 | 0.00 | 0.00 | 0.00 | 41 | 1015.3 |
| 20260503180945 | 56 | 217 | 0.9 | 2.6 | 0.00 | 0.00 | 0.00 | 43 | 1015.2 |
| 20260503180443 | 55 | 217 | 0.9 | 3.5 | 0.00 | 0.00 | 0.00 | 43 | 1015.4 |
| 20260503175940 | 56 | 219 | 0.0 | 3.5 | 0.00 | 0.00 | 0.00 | 43 | 1015.7 |
| 20260503175438 | 57 | 248 | 4.3 | 8.7 | 0.00 | 0.00 | 0.00 | 38 | 1015.6 |
| 20260503174933 | 56 | 203 | 2.6 | 3.5 | 0.00 | 0.00 | 0.00 | 43 | 1015.7 |
| 20260503174432 | 56 | 191 | 3.5 | 7.0 | 0.00 | 0.00 | 0.00 | 44 | 1015.4 |
| 20260503173932 | 54 | 211 | 1.7 | 3.5 | 0.00 | 0.00 | 0.00 | 44 | 1015.7 |
| 20260503173428 | 56 | 182 | 5.2 | 7.0 | 0.00 | 0.00 | 0.00 | 40 | 1015.5 |
| 20260503172925 | 56 | 206 | 1.7 | 3.5 | 0.00 | 0.00 | 0.00 | 42 | 1015.7 |
| 20260503172422 | 56 | 180 | 2.6 | 7.8 | 0.00 | 0.00 | 0.00 | 40 | 1015.7 |
| 20260503171918 | 56 | 220 | 1.7 | 3.5 | 0.00 | 0.00 | 0.00 | 40 | 1015.8 |
| 20260503171415 | 55 | 214 | 1.7 | 2.6 | 0.00 | 0.00 | 0.00 | 47 | 1015.9 |
| 20260503170913 | 55 | 266 | 3.5 | 3.5 | 0.00 | 0.00 | 0.00 | 40 | 1015.5 |
| 20260503170409 | 56 | 227 | 0.9 | 7.0 | 0.00 | 0.00 | 0.00 | 43 | 1016.2 |
| 20260503150801 | 51 | 180 | 4.3 | 5.2 | 0.00 | 0.00 | 0.00 | 44 | 1016.7 |
| 20260503150257 | 52 | 220 | 1.7 | 3.5 | 0.00 | 0.00 | 0.00 | 50 | 1016.6 |
| 20260503140222 | 49 | 226 | 0.9 | 2.6 | 0.00 | 0.00 | 0.00 | 57 | 1017.3 |
| 20260503131151 | 45 | 191 | 1.7 | 2.6 | 0.00 | 0.00 | 0.00 | 68 | 1017.3 |
| 20260503130648 | 44 | 231 | 0.0 | 2.6 | 0.00 | 0.00 | 0.00 | 68 | 1017.1 |
| 20260503130146 | 44 | 197 | 3.5 | 3.5 | 0.00 | 0.00 | 0.00 | 70 | 1017.2 |
| 20260503120106 | 40 | 230 | 0.0 | 0.0 | 0.00 | 0.00 | 0.00 | 82 | 1017.0 |
| 20260503110533 | 33 | 231 | 0.0 | 0.0 | 0.00 | 0.00 | 0.00 | 99 | 1016.5 |
| 20260503090420 | 29 | 231 | 0.0 | 0.0 | 0.00 | 0.00 | 0.00 | 99 | 1015.9 |
| 20260503081346 | 29 | 231 | 0.0 | 0.0 | 0.00 | 0.00 | 0.00 | 99 | 1015.9 |
| 20260503080843 | 29 | 231 | 0.0 | 0.0 | 0.00 | 0.00 | 0.00 | 99 | 1016.1 |
| 20260503080340 | 30 | 231 | 0.0 | 0.0 | 0.00 | 0.00 | 0.00 | 99 | 1016.0 |
| 20260503072817 | 31 | 231 | 0.0 | 0.0 | 0.00 | 0.00 | 0.00 | 99 | 1015.5 |
| 20260503072314 | 31 | 231 | 0.0 | 0.0 | 0.00 | 0.00 | 0.00 | 99 | 1015.6 |
| 20260503071809 | 31 | 231 | 0.0 | 0.0 | 0.00 | 0.00 | 0.00 | 99 | 1015.6 |
| 20260503071307 | 31 | 231 | 0.0 | 0.0 | 0.00 | 0.00 | 0.00 | 99 | 1015.6 |
| 20260503070803 | 31 | 231 | 0.0 | 0.0 | 0.00 | 0.00 | 0.00 | 99 | 1015.6 |
| 20260503070301 | 31 | 231 | 0.0 | 0.0 | 0.00 | 0.00 | 0.00 | 99 | 1015.4 |
| 20260503060221 | 34 | 231 | 0.0 | 0.0 | 0.00 | 0.00 | 0.00 | 99 | 1015.7 |
| 20260503054707 | 33 | 231 | 0.0 | 0.0 | 0.00 | 0.00 | 0.00 | 99 | 1015.8 |
| 20260503054205 | 34 | 231 | 0.0 | 0.0 | 0.00 | 0.00 | 0.00 | 99 | 1015.8 |
| 20260503053703 | 34 | 231 | 0.0 | 0.0 | 0.00 | 0.00 | 0.00 | 99 | 1015.7 |
| 20260503053202 | 34 | 231 | 0.0 | 0.0 | 0.00 | 0.00 | 0.00 | 99 | 1015.8 |
| 20260503052657 | 34 | 231 | 0.0 | 0.0 | 0.00 | 0.00 | 0.00 | 99 | 1015.8 |
| 20260503052154 | 34 | 231 | 0.0 | 0.0 | 0.00 | 0.00 | 0.00 | 99 | 1016.0 |
| 20260503051649 | 34 | 231 | 0.0 | 0.0 | 0.00 | 0.00 | 0.00 | 99 | 1015.9 |
| 20260503051147 | 34 | 231 | 0.0 | 0.0 | 0.00 | 0.00 | 0.00 | 99 | 1015.9 |
| 20260503050644 | 34 | 231 | 0.0 | 0.0 | 0.00 | 0.00 | 0.00 | 99 | 1015.9 |
| 20260503050140 | 34 | 231 | 0.0 | 0.0 | 0.00 | 0.00 | 0.00 | 99 | 1015.9 |
| 20260503045638 | 34 | 231 | 0.0 | 0.0 | 0.00 | 0.00 | 0.00 | 98 | 1016.1 |
| 20260503045135 | 34 | 231 | 0.0 | 0.0 | 0.00 | 0.00 | 0.00 | 98 | 1016.1 |
| 20260503044631 | 34 | 231 | 0.0 | 0.0 | 0.00 | 0.00 | 0.00 | 98 | 1016.1 |
| 20260503044129 | 34 | 231 | 0.0 | 0.0 | 0.00 | 0.00 | 0.00 | 97 | 1016.0 |
| 20260503043626 | 34 | 231 | 0.0 | 0.0 | 0.00 | 0.00 | 0.00 | 97 | 1016.1 |
| 20260503043122 | 34 | 231 | 0.0 | 0.0 | 0.00 | 0.00 | 0.00 | 97 | 1016.2 |
| 20260503042619 | 34 | 231 | 0.0 | 0.0 | 0.00 | 0.00 | 0.00 | 96 | 1016.1 |
| 20260503042115 | 34 | 231 | 0.0 | 0.0 | 0.00 | 0.00 | 0.00 | 96 | 1016.1 |
| 20260503041611 | 34 | 231 | 0.0 | 0.0 | 0.00 | 0.00 | 0.00 | 96 | 1016.1 |
| 20260503041110 | 35 | 231 | 0.0 | 0.0 | 0.00 | 0.00 | 0.00 | 96 | 1016.1 |
| 20260503040606 | 35 | 231 | 0.0 | 0.0 | 0.00 | 0.00 | 0.00 | 95 | 1016.0 |
| 20260503040104 | 35 | 231 | 0.0 | 0.0 | 0.00 | 0.00 | 0.00 | 95 | 1016.3 |
| 20260503035600 | 35 | 231 | 0.0 | 0.0 | 0.00 | 0.01 | 0.01 | 95 | 1016.0 |
| 20260503035058 | 35 | 231 | 0.0 | 0.0 | 0.00 | 0.01 | 0.01 | 94 | 1015.9 |
| 20260503034555 | 35 | 231 | 0.0 | 0.0 | 0.00 | 0.01 | 0.01 | 94 | 1016.4 |
| 20260503034052 | 35 | 231 | 0.0 | 0.0 | 0.00 | 0.01 | 0.01 | 94 | 1015.9 |
| 20260503033549 | 36 | 231 | 0.0 | 0.0 | 0.00 | 0.01 | 0.01 | 93 | 1016.0 |
| 20260503033047 | 36 | 231 | 0.0 | 0.0 | 0.00 | 0.01 | 0.01 | 92 | 1016.1 |
| 20260503032545 | 36 | 231 | 0.0 | 0.0 | 0.00 | 0.01 | 0.01 | 92 | 1015.9 |
| 20260503032043 | 36 | 231 | 0.0 | 0.0 | 0.00 | 0.01 | 0.01 | 92 | 1016.1 |
| 20260503031541 | 36 | 231 | 0.0 | 0.0 | 0.00 | 0.01 | 0.01 | 92 | 1016.2 |